Location: Kitchener
(43.4500°N, 80.5000°W)
Time: 11:08:40
(UTC-05:00)

Cosmos 1939 Rocket - Visible Passes

Search period start: 23 February 2018 00:00
Search period end: 05 March 2018 00:00
Orbit: 534 x 585 km, 97.5° (Epoch: 22 February)

Date Brightness Start Highest point End Pass type
(mag) Time Alt. Az. Time Alt. Az. Time Alt. Az.
23 Feb 3.1 20:02:39 55° NNE 20:02:39 55° NNE 20:06:05 10° N visible
23 Feb 6.2 21:38:33 10° WNW 21:38:33 10° WNW 21:38:33 10° WNW visible
24 Feb 3.0 20:01:06 57° NE 20:01:06 57° NE 20:04:42 10° N visible
24 Feb 6.2 21:37:00 11° WNW 21:37:00 11° WNW 21:37:21 10° WNW visible
25 Feb 2.9 19:59:32 58° NE 19:59:32 58° NE 20:03:20 10° N visible
25 Feb 6.1 21:35:27 11° WNW 21:35:27 11° WNW 21:36:07 10° WNW visible
26 Feb 2.9 19:58:00 58° ENE 19:58:00 58° ENE 20:01:57 10° N visible
26 Feb 6.1 21:33:54 12° W 21:33:54 12° W 21:34:53 10° WNW visible
27 Feb 2.9 19:56:27 56° E 19:56:33 56° ENE 20:00:34 10° N visible
27 Feb 6.0 21:32:21 12° W 21:32:21 12° W 21:33:38 10° WNW visible
28 Feb 2.9 19:54:55 53° E 19:55:12 54° ENE 19:59:11 10° N visible
28 Feb 5.9 21:30:48 13° W 21:30:48 13° W 21:32:22 10° WNW visible
01 Mar 3.0 19:53:23 49° E 19:53:50 52° ENE 19:57:48 10° N visible
01 Mar 5.9 21:29:17 13° W 21:29:17 13° W 21:31:06 10° WNW visible
02 Mar 3.0 19:51:51 45° ESE 19:52:29 50° ENE 19:56:25 10° N visible
02 Mar 5.8 21:27:45 14° W 21:27:45 14° W 21:29:49 10° WNW visible
03 Mar 3.1 19:50:19 42° ESE 19:51:07 48° ENE 19:55:02 10° N visible
03 Mar 5.7 21:26:13 14° W 21:26:18 14° W 21:28:32 10° WNW visible
04 Mar 3.1 19:48:47 38° ESE 19:49:46 47° ENE 19:53:39 10° N visible
04 Mar 5.7 21:24:41 15° W 21:24:55 15° W 21:27:14 10° WNW visible
